Weather History for KIZG - February, 2013

Change the Weather History Date:

Wednesday, February 6, 2013

  Actual Average Record
Temperature  
Mean Temperature 24 °F -  
Max Temperature 34 °F 30 °F 46 °F (2005)
Min Temperature 14 °F 5 °F -22 °F (2015)
Degree Days  
Heating Degree Days 41    
Moisture  
Dew Point 8 °F    
Average Humidity 59    
Maximum Humidity 84    
Minimum Humidity 25    
Precipitation  
Precipitation 0.00 in - - ()
Sea Level Pressure  
Sea Level Pressure 30.02 in    
Wind  
Wind Speed 3 mph (WNW)    
Max Wind Speed 15 mph    
Max Gust Speed 28 mph    
Visibility 9 miles    
Events Snow    
Averages and records for this station are not official NWS values.
T = Trace of Precipitation, MM = Missing Value Source: NWS Daily Summary

Daily Weather History Graph

Daily Weather History Graph

Search for Another Location

Airport or City:

Trip Planner

Search our weather history database for the weather conditions in past years. The results will help you decide how hot, cold, wet, or windy it might be!

Date:

Astronomy

Feb. 06, 2013 Rise Set
Actual Time 6:54 AM EST 5:01 PM EST
Civil Twilight 6:24 AM EST 5:31 PM EST
Nautical Twilight 5:50 AM EST 6:05 PM EST
Astronomical Twilight 5:16 AM EST 6:39 PM EST
Moon 3:39 AM EST (2/6) 1:12 PM EST (2/6)
Length of Visible Light 11h 07m
Length of Day
10h 06m
Waning Crescent, 17% of the Moon is Illuminated
Feb 6
Waning Crescent
Feb 10
New
Feb 17
First Quarter
Feb 25
Full
Mar 4
Last Quarter

Hourly Weather History & Observations

Time (EST) Temp. Windchill Dew Point Humidity Pressure Visibility Wind Dir Wind Speed Gust Speed Precip Events Conditions
12:54 AM 14.0 °F - 8.1 °F 77% 29.96 in 10.0 mi Calm Calm - N/A   Overcast
2:10 AM 15.8 °F - 8.6 °F 73% 29.94 in 10.0 mi Calm Calm - 0.00 in   Overcast
3:54 AM 16.0 °F - 9.0 °F 74% 29.96 in 4.0 mi Calm Calm - 0.00 in Snow Light Snow
4:05 AM 15.8 °F - 10.4 °F 79% 29.92 in 5.0 mi Calm Calm - 0.00 in Snow Light Snow
4:46 AM 15.8 °F - 10.4 °F 79% 29.93 in 5.0 mi Calm Calm - 0.00 in Snow Light Snow
4:54 AM 16.0 °F - 10.9 °F 81% 29.95 in 7.0 mi Calm Calm - 0.00 in   Overcast
5:54 AM 16.0 °F - 12.0 °F 84% 29.96 in 10.0 mi Calm Calm - 0.00 in   Overcast
6:54 AM 17.1 °F - 12.0 °F 81% 29.98 in 10.0 mi Calm Calm - N/A   Overcast
7:54 AM 17.1 °F - 12.9 °F 84% 29.98 in 10.0 mi Calm Calm - 0.00 in   Overcast
8:25 AM 17.6 °F - 12.2 °F 79% 29.95 in 10.0 mi Calm Calm - N/A   Overcast
8:54 AM 19.0 °F - 14.0 °F 81% 29.98 in 10.0 mi Calm Calm - 0.00 in   Overcast
10:54 AM 28.0 °F - 18.0 °F 66% 29.94 in 10.0 mi Calm Calm - 0.00 in   Scattered Clouds
11:54 AM 34.0 °F 26.6 °F 18.0 °F 52% 29.91 in 10.0 mi SSW 9.2 mph - N/A   Scattered Clouds
12:54 PM 33.1 °F 27.7 °F 17.1 °F 52% 29.92 in 10.0 mi Variable 5.8 mph 16.1 mph N/A   Overcast
1:54 PM 33.1 °F 23.9 °F 15.1 °F 48% 29.94 in 10.0 mi West 12.7 mph 19.6 mph N/A   Overcast
2:54 PM 34.0 °F 26.0 °F 17.1 °F 50% 29.96 in 10.0 mi NNW 10.4 mph - N/A   Overcast
3:54 PM 30.0 °F 22.4 °F 14.0 °F 51% 30.00 in 10.0 mi NW 8.1 mph - N/A   Scattered Clouds
4:54 PM 28.0 °F 19.3 °F 10.0 °F 47% 30.04 in 10.0 mi NW 9.2 mph 18.4 mph N/A   Clear
5:54 PM 25.0 °F 16.3 °F 6.1 °F 45% 30.09 in 10.0 mi NW 8.1 mph 17.3 mph N/A   Clear
6:54 PM 23.0 °F 11.7 °F 5.0 °F 46% 30.14 in 10.0 mi NW 11.5 mph 18.4 mph N/A   Clear
7:54 PM 19.9 °F 8.6 °F -2.0 °F 38% 30.17 in 10.0 mi NW 10.4 mph 20.7 mph N/A   Clear
8:54 PM 19.0 °F 6.1 °F -9.0 °F 29% 30.21 in 10.0 mi WNW 12.7 mph 20.7 mph N/A   Clear
9:54 PM 17.1 °F 3.0 °F -11.9 °F 27% 30.24 in 10.0 mi West 13.8 mph 27.6 mph N/A   Clear
10:54 PM 15.1 °F -0.1 °F -15.0 °F 25% 30.25 in 10.0 mi West 15.0 mph 27.6 mph N/A   Clear
11:54 PM 14.0 °F 3.9 °F -13.0 °F 29% 30.27 in 10.0 mi Variable 6.9 mph - N/A   Clear